| time (UTC) | temp C | wind direction | speed KPH | gust KPH | rain 1hr cm | rain 24hr cm | rain mn cm | humidity % | barometer mb |
| 20260906094528 | 31 | 74 | 0.0 | 4.8 | 0.00 | 0.58 | 0.00 | 61 | 1021.1 |
| 20260906093026 | 30 | 167 | 0.0 | 8.0 | 0.00 | 0.58 | 0.00 | 67 | 1021.0 |
| 20260906091530 | 30 | 165 | 1.6 | 8.0 | 0.00 | 0.58 | 0.00 | 66 | 1021.1 |
| 20260906090125 | 30 | 199 | 3.2 | 9.7 | 0.00 | 0.58 | 0.00 | 67 | 1021.1 |
| 20260906084522 | 29 | 206 | 1.6 | 8.0 | 0.00 | 0.58 | 0.00 | 70 | 1021.1 |
| 20260906083027 | 28 | 193 | 1.6 | 8.0 | 0.00 | 0.58 | 0.00 | 71 | 1021.1 |
| 20260906081517 | 28 | 207 | 0.0 | 6.4 | 0.00 | 0.58 | 0.00 | 72 | 1021.1 |
| 20260906080024 | 28 | 210 | 1.6 | 6.4 | 0.00 | 0.58 | 0.00 | 72 | 1020.9 |
| 20260906074512 | 27 | 174 | 3.2 | 9.7 | 0.00 | 0.58 | 0.00 | 72 | 1020.9 |
| 20260906073008 | 27 | 186 | 3.2 | 11.3 | 0.00 | 0.58 | 0.00 | 73 | 1020.7 |
| 20260906071505 | 26 | 207 | 4.8 | 8.0 | 0.00 | 0.58 | 0.00 | 73 | 1020.5 |
| 20260906070003 | 26 | 219 | 1.6 | 9.7 | 0.00 | 0.58 | 0.00 | 74 | 1020.6 |
| 20260906064501 | 25 | 200 | 0.0 | 6.4 | 0.00 | 0.58 | 0.00 | 76 | 1020.5 |
| 20260906063102 | 24 | 208 | 0.0 | 3.2 | 0.00 | 0.58 | 0.00 | 76 | 1020.4 |
| 20260906061559 | 23 | 198 | 0.0 | 6.4 | 0.00 | 0.58 | 0.00 | 77 | 1020.1 |
| 20260906060056 | 23 | 184 | 1.6 | 4.8 | 0.00 | 0.58 | 0.00 | 78 | 1020.0 |
| 20260906054555 | 23 | 186 | 0.0 | 4.8 | 0.00 | 0.58 | 0.00 | 79 | 1019.9 |
| 20260906053103 | 23 | 200 | 0.0 | 6.4 | 0.00 | 0.58 | 0.00 | 80 | 1019.8 |
| 20260906051551 | 23 | 189 | 0.0 | 6.4 | 0.00 | 0.58 | 0.00 | 81 | 1019.7 |
| 20260906050053 | 23 | 162 | 0.0 | 4.8 | 0.00 | 0.58 | 0.00 | 83 | 1019.5 |
| 20260906044547 | 23 | 203 | 0.0 | 6.4 | 0.00 | 0.58 | 0.00 | 84 | 1019.4 |
| 20260906043051 | 23 | 194 | 0.0 | 3.2 | 0.00 | 0.58 | 0.00 | 85 | 1019.3 |
| 20260906041544 | 23 | 172 | 0.0 | 3.2 | 0.00 | 0.58 | 0.00 | 87 | 1019.2 |
| 20260906040043 | 23 | 175 | 0.0 | 6.4 | 0.00 | 0.58 | 0.00 | 87 | 1019.1 |
| 20260906034540 | 23 | 185 | 3.2 | 6.4 | 0.00 | 0.58 | 0.00 | 88 | 1018.8 |
| 20260906033047 | 23 | 176 | 1.6 | 8.0 | 0.00 | 0.58 | 0.00 | 90 | 1018.7 |
| 20260906031536 | 23 | 167 | 0.0 | 8.0 | 0.00 | 0.58 | 0.00 | 91 | 1018.5 |
| 20260906030033 | 24 | 214 | 3.2 | 9.7 | 0.00 | 0.58 | 0.00 | 91 | 1018.4 |
| 20260906024531 | 24 | 181 | 1.6 | 6.4 | 0.00 | 0.58 | 0.00 | 90 | 1018.5 |
| 20260906023035 | 24 | 210 | 3.2 | 8.0 | 0.00 | 0.58 | 0.00 | 90 | 1018.4 |
| 20260906021529 | 24 | 204 | 1.6 | 8.0 | 0.00 | 0.58 | 0.00 | 89 | 1018.4 |
| 20260906020027 | 24 | 174 | 3.2 | 9.7 | 0.00 | 0.58 | 0.00 | 88 | 1018.3 |
| 20260906014528 | 24 | 184 | 1.6 | 6.4 | 0.00 | 0.58 | 0.00 | 87 | 1018.2 |
| 20260906013031 | 24 | 229 | 3.2 | 9.7 | 0.00 | 0.58 | 0.00 | 86 | 1018.2 |
| 20260906011522 | 24 | 175 | 3.2 | 8.0 | 0.00 | 0.58 | 0.00 | 84 | 1018.2 |
| 20260906010019 | 25 | 190 | 3.2 | 9.7 | 0.00 | 0.58 | 0.00 | 83 | 1018.0 |
| 20260906004517 | 25 | 207 | 0.0 | 4.8 | 0.00 | 0.58 | 0.00 | 81 | 1018.1 |
| 20260906003016 | 25 | 208 | 0.0 | 3.2 | 0.00 | 0.58 | 0.00 | 81 | 1018.0 |
| 20260906001518 | 25 | 204 | 0.0 | 4.8 | 0.00 | 0.58 | 0.00 | 80 | 1018.1 |
| 20260906000033 | 25 | 184 | 0.0 | 1.6 | 0.00 | 0.58 | 0.00 | 80 | 1018.1 |
| 20260905234511 | 25 | 184 | 0.0 | 3.2 | 0.00 | 0.58 | 0.00 | 80 | 1017.8 |
| 20260905233010 | 25 | 185 | 0.0 | 3.2 | 0.00 | 0.58 | 0.00 | 79 | 1017.8 |
| 20260905231508 | 26 | 168 | 0.0 | 3.2 | 0.00 | 0.58 | 0.00 | 78 | 1017.8 |
| 20260905230006 | 26 | 194 | 0.0 | 3.2 | 0.00 | 0.58 | 0.00 | 78 | 1017.6 |
| 20260905224504 | 26 | 167 | 0.0 | 4.8 | 0.00 | 0.58 | 0.00 | 78 | 1017.6 |
| 20260905223006 | 26 | 189 | 0.0 | 1.6 | 0.00 | 0.58 | 0.00 | 78 | 1017.4 |
| 20260905221501 | 26 | 184 | 0.0 | 3.2 | 0.00 | 0.58 | 0.00 | 78 | 1017.4 |
| 20260905220100 | 26 | 194 | 0.0 | 4.8 | 0.00 | 0.58 | 0.00 | 78 | 1017.3 |
| 20260905214601 | 26 | 84 | 0.0 | 3.2 | 0.00 | 0.58 | 0.58 | 77 | 1017.2 |
| 20260905213055 | 26 | 167 | 0.0 | 3.2 | 0.00 | 0.58 | 0.58 | 76 | 1017.1 |
| 20260905211558 | 26 | 155 | 0.0 | 3.2 | 0.00 | 0.58 | 0.58 | 76 | 1017.0 |
| 20260905210110 | 26 | 109 | 0.0 | 3.2 | 0.00 | 0.58 | 0.58 | 76 | 1016.9 |
| 20260905204558 | 26 | 154 | 0.0 | 3.2 | 0.00 | 0.58 | 0.58 | 76 | 1016.9 |
| 20260905203051 | 26 | 146 | 0.0 | 6.4 | 0.00 | 0.58 | 0.58 | 76 | 1016.8 |
| 20260905201550 | 26 | 322 | 0.0 | 6.4 | 0.00 | 0.58 | 0.58 | 77 | 1016.7 |
| 20260905200049 | 26 | 354 | 0.0 | 3.2 | 0.00 | 0.58 | 0.58 | 77 | 1016.7 |
| 20260905194554 | 27 | 162 | 0.0 | 4.8 | 0.00 | 0.58 | 0.58 | 76 | 1016.6 |
| 20260905193046 | 27 | 174 | 0.0 | 6.4 | 0.00 | 0.58 | 0.58 | 74 | 1016.5 |
| 20260905191547 | 27 | 180 | 0.0 | 4.8 | 0.00 | 0.58 | 0.58 | 74 | 1016.2 |
| 20260905190044 | 27 | 302 | 0.0 | 8.0 | 0.00 | 0.58 | 0.58 | 73 | 1016.1 |
| 20260905184606 | 27 | 250 | 1.6 | 6.4 | 0.00 | 0.58 | 0.58 | 72 | 1015.9 |
| 20260905183048 | 28 | 295 | 0.0 | 4.8 | 0.00 | 0.58 | 0.58 | 68 | 1015.6 |
| 20260905181552 | 29 | 135 | 0.0 | 3.2 | 0.00 | 0.58 | 0.58 | 64 | 1015.4 |
| 20260905180046 | 30 | 316 | 0.0 | 0.0 | 0.00 | 0.58 | 0.58 | 48 | 1015.1 |
| 20260905174542 | 31 | 316 | 0.0 | 0.0 | 0.00 | 0.58 | 0.58 | 46 | 1015.0 |
| 20260905173040 | 32 | 316 | 0.0 | 0.0 | 0.00 | 0.58 | 0.58 | 43 | 1014.9 |
| 20260905171542 | 32 | 316 | 0.0 | 0.0 | 0.00 | 0.58 | 0.58 | 42 | 1014.8 |
| 20260905170040 | 32 | 316 | 0.0 | 0.0 | 0.00 | 0.58 | 0.58 | 42 | 1014.7 |
| 20260905164538 | 32 | 316 | 0.0 | 0.0 | 0.00 | 0.58 | 0.58 | 41 | 1014.6 |
| 20260905163037 | 33 | 316 | 0.0 | 3.2 | 0.00 | 0.58 | 0.58 | 41 | 1014.5 |
| 20260905161536 | 33 | 18 | 0.0 | 1.6 | 0.00 | 0.58 | 0.58 | 40 | 1014.5 |
| 20260905160038 | 33 | 18 | 0.0 | 3.2 | 0.00 | 0.58 | 0.58 | 40 | 1014.4 |
| 20260905154554 | 33 | 18 | 0.0 | 1.6 | 0.20 | 0.64 | 0.58 | 41 | 1014.3 |
| 20260905153034 | 33 | 18 | 0.0 | 1.6 | 0.28 | 0.64 | 0.58 | 40 | 1014.2 |
| 20260905151536 | 34 | 18 | 0.0 | 3.2 | 0.28 | 0.64 | 0.58 | 39 | 1014.2 |
| 20260905150032 | 34 | 38 | 0.0 | 1.6 | 0.28 | 0.81 | 0.58 | 39 | 1014.3 |
| 20260905144534 | 34 | 11 | 0.0 | 3.2 | 0.08 | 0.61 | 0.38 | 40 | 1014.3 |
| 20260905143030 | 35 | 20 | 0.0 | 3.2 | 0.00 | 0.53 | 0.30 | 40 | 1014.4 |
| 20260905141530 | 35 | 290 | 0.0 | 3.2 | 0.00 | 0.53 | 0.30 | 38 | 1014.5 |
| 20260905140029 | 36 | 23 | 0.0 | 1.6 | 0.00 | 0.53 | 0.30 | 38 | 1014.7 |
| 20260905134528 | 36 | 16 | 0.0 | 1.6 | 0.00 | 0.53 | 0.30 | 39 | 1014.7 |
| 20260905133038 | 36 | 12 | 0.0 | 1.6 | 0.00 | 0.53 | 0.30 | 38 | 1014.9 |
| 20260905131525 | 36 | 18 | 0.0 | 3.2 | 0.03 | 0.53 | 0.30 | 38 | 1014.9 |
| 20260905130025 | 36 | 27 | 0.0 | 1.6 | 0.03 | 0.53 | 0.30 | 39 | 1015.2 |
| 20260905124525 | 36 | 27 | 0.0 | 4.8 | 0.03 | 0.53 | 0.30 | 39 | 1015.4 |
| 20260905123021 | 36 | 26 | 0.0 | 1.6 | 0.03 | 0.53 | 0.30 | 40 | 1015.5 |
| 20260905121523 | 35 | 214 | 0.0 | 4.8 | 0.05 | 0.51 | 0.28 | 42 | 1015.6 |
| 20260905120019 | 35 | 155 | 0.0 | 1.6 | 0.08 | 0.69 | 0.28 | 40 | 1015.7 |
| 20260905114519 | 35 | 188 | 0.0 | 3.2 | 0.08 | 0.69 | 0.28 | 41 | 1015.9 |
| 20260905113017 | 35 | 319 | 0.0 | 1.6 | 0.10 | 0.69 | 0.28 | 40 | 1016.0 |
| 20260905111528 | 36 | 18 | 0.0 | 4.8 | 0.08 | 0.61 | 0.23 | 40 | 1015.9 |
| 20260905110031 | 35 | 201 | 0.0 | 3.2 | 0.05 | 0.69 | 0.20 | 39 | 1015.8 |
| 20260905104514 | 35 | 203 | 0.0 | 3.2 | 0.05 | 0.69 | 0.20 | 43 | 1016.1 |
| 20260905103014 | 35 | 202 | 0.0 | 6.4 | 0.05 | 0.64 | 0.15 | 43 | 1016.2 |
| 20260905101512 | 35 | 198 | 0.0 | 0.0 | 0.05 | 0.61 | 0.15 | 43 | 1016.1 |
| 20260905100011 | 33 | 156 | 0.0 | 1.6 | 0.15 | 0.71 | 0.15 | 44 | 1016.2 |